Change the Weather History Date:

Wednesday, January 22, 2014

  Actual Average Record
Temperature  
Mean Temperature 38 °F -  
Max Temperature 46 °F 59 °F 79 °F (1974)
Min Temperature 30 °F 36 °F 14 °F (1985)
Degree Days  
Heating Degree Days 27    
Moisture  
Dew Point 23 °F    
Average Humidity 64    
Maximum Humidity 93    
Minimum Humidity 29    
Precipitation  
Precipitation 0.00 in - - ()
Sea Level Pressure  
Sea Level Pressure 30.11 in    
Wind  
Wind Speed 10 mph (NW)    
Max Wind Speed 17 mph    
Max Gust Speed 24 mph    
Visibility 10 miles    
Events      
Averages and records for this station are not official NWS values.
T = Trace of Precipitation, MM = Missing Value Source: NWS Daily Summary

Daily Weather History Graph

Daily Weather History Graph

Search for Another Location

Airport or City:

Trip Planner

Search our weather history database for the weather conditions in past years. The results will help you decide how hot, cold, wet, or windy it might be!

Date:

Astronomy

Jan. 22, 2014 Rise Set
Actual Time 7:28 AM EST 5:57 PM EST
Civil Twilight 7:02 AM EST 6:23 PM EST
Nautical Twilight 6:32 AM EST 6:52 PM EST
Astronomical Twilight 6:03 AM EST 7:21 PM EST
Moon No Moon Rise 10:55 AM EST (1/22)
Length of Visible Light 11h 21m
Length of Day
10h 29m
Waning Gibbous, 65% of the Moon is Illuminated
Jan 22
Waning Gibbous
Jan 24
Last Quarter
Jan 30
New
Feb 6
First Quarter
Feb 14
Full

Hourly Weather History & Observations

Time (EST) Temp. Windchill Dew Point Humidity Pressure Visibility Wind Dir Wind Speed Gust Speed Precip Events Conditions
12:15 AM 37.4 °F 27.8 °F 28.4 °F 70% 29.97 in 10.0 mi NW 17.3 mph 20.7 mph N/A   Clear
12:35 AM 37.4 °F 29.3 °F 28.4 °F 70% 29.98 in 10.0 mi NW 12.7 mph - N/A   Clear
12:55 AM 35.6 °F 26.6 °F 28.4 °F 75% 29.98 in 10.0 mi NW 13.8 mph 17.3 mph N/A   Clear
1:15 AM 35.6 °F 25.5 °F 28.4 °F 75% 29.99 in 10.0 mi NW 17.3 mph 24.2 mph N/A   Clear
1:35 AM 35.6 °F 26.6 °F 26.6 °F 70% 29.99 in 10.0 mi NW 13.8 mph 17.3 mph N/A   Clear
1:55 AM 33.8 °F 25.8 °F 26.6 °F 75% 30.00 in 10.0 mi NW 10.4 mph - N/A   Clear
2:15 AM 33.8 °F 25.8 °F 26.6 °F 75% 30.01 in 10.0 mi NW 10.4 mph - N/A   Clear
2:35 AM 33.8 °F 23.2 °F 26.6 °F 75% 30.02 in 10.0 mi NW 17.3 mph 21.9 mph N/A   Clear
2:55 AM 33.8 °F 23.9 °F 26.6 °F 75% 30.02 in 10.0 mi NW 15.0 mph 23.0 mph N/A   Clear
3:15 AM 32.0 °F 23.6 °F 26.6 °F 80% 30.01 in 10.0 mi NNW 10.4 mph 17.3 mph N/A   Clear
3:35 AM 32.0 °F 23.0 °F 26.6 °F 80% 30.03 in 10.0 mi NW 11.5 mph - N/A   Clear
3:55 AM 32.0 °F 23.6 °F 26.6 °F 80% 30.03 in 10.0 mi NW 10.4 mph - N/A   Clear
4:15 AM 32.0 °F 23.0 °F 24.8 °F 75% 30.04 in 10.0 mi NW 11.5 mph 18.4 mph N/A   Clear
4:55 AM 32.0 °F 23.6 °F 23.0 °F 69% 30.05 in 10.0 mi NW 10.4 mph - N/A   Clear
5:15 AM 30.2 °F 23.4 °F 23.0 °F 75% 30.06 in 10.0 mi NW 6.9 mph - N/A   Clear
5:35 AM 30.2 °F 24.3 °F 23.0 °F 75% 30.06 in 10.0 mi NW 5.8 mph - N/A   Clear
5:55 AM 30.2 °F 21.9 °F 23.0 °F 75% 30.07 in 10.0 mi NW 9.2 mph - N/A   Clear
6:15 AM 30.2 °F 21.3 °F 23.0 °F 75% 30.08 in 10.0 mi NNW 10.4 mph - N/A   Clear
6:35 AM 30.2 °F 22.6 °F 23.0 °F 75% 30.09 in 10.0 mi NW 8.1 mph - N/A   Clear
6:55 AM 30.2 °F 20.8 °F 23.0 °F 75% 30.09 in 10.0 mi NW 11.5 mph 17.3 mph N/A   Clear
7:15 AM 30.2 °F 20.8 °F 21.2 °F 69% 30.10 in 10.0 mi NW 11.5 mph - N/A   Clear
7:35 AM 30.2 °F 23.4 °F 21.2 °F 69% 30.11 in 10.0 mi NNW 6.9 mph - N/A   Clear
7:55 AM 30.2 °F 22.6 °F 21.2 °F 69% 30.12 in 10.0 mi NW 8.1 mph - N/A   Clear
8:15 AM 30.2 °F 23.4 °F 21.2 °F 69% 30.13 in 10.0 mi NNW 6.9 mph - N/A   Clear
8:35 AM 30.2 °F 22.6 °F 21.2 °F 69% 30.13 in 10.0 mi NW 8.1 mph - N/A   Clear
8:55 AM 32.0 °F 23.0 °F 21.2 °F 64% 30.14 in 10.0 mi NW 11.5 mph - N/A   Clear
9:15 AM 32.0 °F 23.0 °F 19.4 °F 60% 30.14 in 10.0 mi NNW 11.5 mph 19.6 mph N/A   Clear
9:35 AM 32.0 °F 22.1 °F 21.2 °F 64% 30.15 in 10.0 mi NW 13.8 mph 18.4 mph N/A   Clear
9:55 AM 32.0 °F 22.1 °F 21.2 °F 64% 30.16 in 10.0 mi NW 13.8 mph - N/A   Clear
10:15 AM 32.0 °F 22.1 °F 19.4 °F 60% 30.17 in 10.0 mi NW 13.8 mph 17.3 mph N/A   Clear
10:35 AM 33.8 °F 26.4 °F 19.4 °F 56% 30.17 in 10.0 mi NW 9.2 mph - N/A   Clear
10:55 AM 35.6 °F 25.5 °F 19.4 °F 52% 30.18 in 10.0 mi NW 17.3 mph - N/A   Clear
11:15 AM 35.6 °F 26.6 °F 19.4 °F 52% 30.18 in 10.0 mi NW 13.8 mph 17.3 mph N/A   Clear
11:35 AM 37.4 °F 30.3 °F 19.4 °F 48% 30.17 in 10.0 mi NW 10.4 mph - N/A   Clear
11:55 AM 37.4 °F 30.3 °F 19.4 °F 48% 30.15 in 10.0 mi NW 10.4 mph - N/A   Clear
12:15 PM 39.2 °F 33.6 °F 19.4 °F 45% 30.14 in 10.0 mi NW 8.1 mph 16.1 mph N/A   Clear
12:35 PM 39.2 °F 35.0 °F 17.6 °F 42% 30.13 in 10.0 mi WNW 5.8 mph - N/A   Clear
12:55 PM 41.0 °F 34.3 °F 17.6 °F 39% 30.12 in 10.0 mi WNW 11.5 mph - N/A   Clear
1:15 PM 42.8 °F 39.3 °F 19.4 °F 39% 30.11 in 10.0 mi West 5.8 mph - N/A   Clear
1:35 PM 42.8 °F 37.0 °F 17.6 °F 36% 30.11 in 10.0 mi NNW 10.4 mph 17.3 mph N/A   Clear
1:55 PM 44.6 °F 38.8 °F 17.6 °F 34% 30.10 in 10.0 mi WNW 11.5 mph 16.1 mph N/A   Clear
2:15 PM 44.6 °F 39.2 °F 17.6 °F 34% 30.09 in 10.0 mi West 10.4 mph - N/A   Clear
2:35 PM 44.6 °F 39.2 °F 17.6 °F 34% 30.09 in 10.0 mi NW 10.4 mph - N/A   Clear
2:55 PM 44.6 °F 42.2 °F 14.0 °F 29% 30.09 in 10.0 mi WNW 4.6 mph 10.4 mph N/A   Clear
3:15 PM 44.6 °F 39.2 °F 17.6 °F 34% 30.09 in 10.0 mi WNW 10.4 mph - N/A   Clear
3:35 PM 46.4 °F 41.5 °F 17.6 °F 32% 30.09 in 10.0 mi WNW 10.4 mph - N/A   Clear
3:55 PM 46.4 °F 42.4 °F 17.6 °F 32% 30.09 in 10.0 mi NW 8.1 mph - N/A   Clear
4:15 PM 46.4 °F 42.9 °F 17.6 °F 32% 30.10 in 10.0 mi WNW 6.9 mph 16.1 mph N/A   Clear
4:35 PM 46.4 °F 42.4 °F 17.6 °F 32% 30.10 in 10.0 mi WNW 8.1 mph - N/A   Clear
4:55 PM 44.6 °F 39.7 °F 17.6 °F 34% 30.11 in 10.0 mi West 9.2 mph - N/A   Clear
5:15 PM 44.6 °F 40.2 °F 17.6 °F 34% 30.11 in 10.0 mi West 8.1 mph - N/A   Clear
5:35 PM 42.8 °F 39.3 °F 17.6 °F 36% 30.11 in 10.0 mi WNW 5.8 mph - N/A   Clear
5:55 PM 41.0 °F 39.0 °F 17.6 °F 39% 30.12 in 10.0 mi WNW 3.5 mph - N/A   Clear
6:15 PM 39.2 °F - 21.2 °F 49% 30.12 in 10.0 mi Calm Calm - N/A   Clear
6:35 PM 37.4 °F - 23.0 °F 56% 30.13 in 10.0 mi Calm Calm - N/A   Clear
6:55 PM 35.6 °F - 26.6 °F 70% 30.14 in 10.0 mi Calm Calm - N/A   Clear
7:15 PM 33.8 °F - 26.6 °F 75% 30.15 in 10.0 mi Calm Calm - N/A   Clear
7:35 PM 33.8 °F - 26.6 °F 75% 30.16 in 10.0 mi Calm Calm - N/A   Clear
7:55 PM 33.8 °F - 26.6 °F 75% 30.16 in 10.0 mi Calm Calm - N/A   Clear
8:15 PM 32.0 °F - 28.4 °F 87% 30.16 in 10.0 mi Calm Calm - N/A   Clear
8:35 PM 32.0 °F - 28.4 °F 87% 30.17 in 10.0 mi Calm Calm - N/A   Clear
8:55 PM 32.0 °F - 28.4 °F 87% 30.18 in 10.0 mi Calm Calm - N/A   Clear
9:15 PM 32.0 °F - 28.4 °F 87% 30.18 in 10.0 mi Calm Calm - N/A   Clear
9:35 PM 32.0 °F - 30.2 °F 93% 30.18 in 10.0 mi Calm Calm - N/A   Clear
9:55 PM 32.0 °F - 28.4 °F 87% 30.19 in 10.0 mi Calm Calm - N/A   Clear
10:15 PM 32.0 °F - 28.4 °F 87% 30.19 in 10.0 mi Calm Calm - N/A   Clear
10:35 PM 30.2 °F - 28.4 °F 93% 30.20 in 10.0 mi Calm Calm - N/A   Clear
10:55 PM 30.2 °F - 28.4 °F 93% 30.20 in 10.0 mi Calm Calm - N/A   Clear
11:15 PM 30.2 °F - 28.4 °F 93% 30.20 in 10.0 mi Calm Calm - N/A   Clear
11:35 PM 30.2 °F - 28.4 °F 93% 30.20 in 10.0 mi Calm Calm - N/A   Clear
11:55 PM 30.2 °F - 28.4 °F 93% 30.21 in 10.0 mi Calm Calm - N/A   Clear